This is the latest recevied weather packets stored in our database for station/object KC1HBM. If no packets are shown the sender has not sent any weather packets the latest 10 day(s).
| Time | Temp. | Humidity | Pressure | Rain* | Wind** | Luminosity | Snow |
|---|---|---|---|---|---|---|---|
| 1777760753 | 9.44° C | 90% | 1008.5 hPa | 0 mm | - | 3 W/m² | - |
| 1777760449 | 9.44° C | 91% | 1008.6 hPa | 0 mm | - | 3 W/m² | - |
| 1777760145 | 9.44° C | 90% | 1008.6 hPa | 0 mm | - | 5 W/m² | - |
| 1777759843 | 10° C | 90% | 1008.5 hPa | 0 mm | - | 5 W/m² | - |
| 1777759538 | 10° C | 89% | 1008.5 hPa | 0 mm | - | 3 W/m² | - |
| 1777759235 | 10° C | 87% | 1008.5 hPa | 0 mm | - | 5 W/m² | - |
| 1777758932 | 10° C | 85% | 1008.5 hPa | 0 mm | - | 12 W/m² | - |
| 1777758629 | 10° C | 85% | 1008.7 hPa | 0 mm | - | 13 W/m² | - |
| 1777758326 | 10° C | 84% | 1008.4 hPa | 0 mm | - | 14 W/m² | - |
| 1777758024 | 10° C | 84% | 1008.5 hPa | 0 mm | - | 7 W/m² | - |
| 1777757720 | 10° C | 84% | 1008.6 hPa | 0 mm | - | 6 W/m² | - |
| 1777757418 | 10° C | 84% | 1008.7 hPa | 0 mm | - | 6 W/m² | - |
| 1777757117 | 10° C | 84% | 1008.7 hPa | 0 mm | - | 5 W/m² | - |
| 1777756814 | 10° C | 85% | 1008.8 hPa | 0 mm | - | 3 W/m² | - |
| 1777756509 | 10° C | 86% | 1008.8 hPa | 0 mm | - | 5 W/m² | - |
| 1777756207 | 10° C | 85% | 1008.7 hPa | 0 mm | - | 13 W/m² | - |
| 1777755904 | 10° C | 86% | 1008.9 hPa | 0 mm | - | 13 W/m² | - |
| 1777755601 | 10° C | 86% | 1008.7 hPa | 0 mm | - | 17 W/m² | - |
| 1777755297 | 10° C | 86% | 1008.7 hPa | 0 mm | - | 12 W/m² | - |
| 1777754994 | 10° C | 86% | 1008.5 hPa | 0 mm | - | 26 W/m² | - |
| 1777754691 | 10° C | 86% | 1008.7 hPa | 0 mm | - | 29 W/m² | - |
| 1777754389 | 10° C | 86% | 1008.5 hPa | 0 mm | - | 29 W/m² | - |
| 1777754086 | 10° C | 86% | 1008.4 hPa | 0 mm | - | 33 W/m² | - |
| 1777753782 | 9.44° C | 86% | 1008.7 hPa | 0 mm | - | 33 W/m² | - |
| 1777753479 | 10° C | 86% | 1008.6 hPa | 0 mm | - | 33 W/m² | - |
* Rain latest hour (hover to see other rain measurements)
** Current wind speed in m/s (hover to see current wind gust speed)